| time (UTC) | temp C | wind direction | speed KPH | gust KPH | rain 1hr cm | rain 24hr cm | rain mn cm | humidity % | barometer mb |
| 20260902230713 | 13 | 138 | 0.0 | 0.0 | 0.00 | 0.00 | 0.00 | 78 | 1024.5 |
| 20260902230220 | 13 | 138 | 0.0 | 0.0 | 0.00 | 0.00 | 0.00 | 78 | 1024.5 |
| 20260902225723 | 13 | 138 | 0.0 | 0.0 | 0.00 | 0.00 | 0.00 | 77 | 1024.5 |
| 20260902224721 | 13 | 137 | 0.0 | 0.0 | 0.00 | 0.00 | 0.00 | 77 | 1024.5 |
| 20260902223714 | 13 | 355 | 0.0 | 0.0 | 0.00 | 0.00 | 0.00 | 77 | 1024.5 |
| 20260902223225 | 14 | 355 | 0.0 | 0.0 | 0.00 | 0.00 | 0.00 | 77 | 1024.5 |
| 20260902222710 | 14 | 355 | 0.0 | 0.0 | 0.00 | 0.00 | 0.00 | 77 | 1024.5 |
| 20260902222220 | 14 | 355 | 0.0 | 9.7 | 0.00 | 0.00 | 0.00 | 76 | 1024.6 |
| 20260902221731 | 14 | 355 | 0.0 | 9.7 | 0.00 | 0.00 | 0.00 | 76 | 1024.5 |
| 20260902221218 | 14 | 355 | 0.0 | 9.7 | 0.00 | 0.00 | 0.00 | 76 | 1024.6 |
| 20260902220729 | 14 | 5 | 0.0 | 0.0 | 0.00 | 0.00 | 0.00 | 76 | 1024.6 |
| 20260902215717 | 14 | 327 | 0.0 | 0.0 | 0.00 | 0.00 | 0.00 | 75 | 1024.5 |
| 20260902215224 | 14 | 0 | 0.0 | 0.0 | 0.00 | 0.00 | 0.00 | 75 | 1024.5 |
| 20260902214213 | 14 | 0 | 0.0 | 0.0 | 0.00 | 0.00 | 0.00 | 75 | 1024.5 |
| 20260902213210 | 14 | 0 | 0.0 | 0.0 | 0.00 | 0.00 | 0.00 | 73 | 1024.5 |
| 20260902211729 | 15 | 350 | 0.0 | 0.0 | 0.00 | 0.00 | 0.00 | 73 | 1024.4 |
| 20260902210715 | 15 | 350 | 0.0 | 0.0 | 0.00 | 0.00 | 0.00 | 72 | 1024.5 |
| 20260902210222 | 15 | 350 | 0.0 | 0.0 | 0.00 | 0.00 | 0.00 | 72 | 1024.4 |
| 20260902205710 | 15 | 350 | 0.0 | 0.0 | 0.00 | 0.00 | 0.00 | 72 | 1024.5 |
| 20260902205208 | 15 | 350 | 0.0 | 0.0 | 0.00 | 0.00 | 0.00 | 72 | 1024.4 |
| 20260902203718 | 15 | 350 | 0.0 | 0.0 | 0.00 | 0.00 | 0.00 | 71 | 1024.3 |
| 20260902202727 | 15 | 346 | 0.0 | 0.0 | 0.00 | 0.00 | 0.00 | 69 | 1024.0 |
| 20260902202231 | 15 | 355 | 0.0 | 0.0 | 0.00 | 0.00 | 0.00 | 68 | 1024.0 |
| 20260902201716 | 15 | 355 | 0.0 | 0.0 | 0.00 | 0.00 | 0.00 | 68 | 1024.1 |
| 20260902201217 | 16 | 355 | 0.0 | 0.0 | 0.00 | 0.00 | 0.00 | 68 | 1024.1 |
| 20260902200728 | 16 | 355 | 0.0 | 0.0 | 0.00 | 0.00 | 0.00 | 67 | 1024.1 |
| 20260902200241 | 16 | 351 | 0.0 | 0.0 | 0.00 | 0.00 | 0.00 | 66 | 1024.0 |
| 20260902195712 | 16 | 38 | 0.0 | 0.0 | 0.00 | 0.00 | 0.00 | 66 | 1024.0 |
| 20260902195218 | 16 | 328 | 0.0 | 0.0 | 0.00 | 0.00 | 0.00 | 66 | 1023.9 |
| 20260902194710 | 16 | 334 | 0.0 | 0.0 | 0.00 | 0.00 | 0.00 | 65 | 1024.0 |
| 20260902193721 | 16 | 5 | 0.0 | 0.0 | 0.00 | 0.00 | 0.00 | 65 | 1023.9 |
| 20260902193222 | 16 | 0 | 0.0 | 0.0 | 0.00 | 0.00 | 0.00 | 64 | 1023.9 |
| 20260902192730 | 16 | 5 | 0.0 | 0.0 | 0.00 | 0.00 | 0.00 | 64 | 1023.9 |
| 20260902192234 | 16 | 5 | 0.0 | 0.0 | 0.00 | 0.00 | 0.00 | 64 | 1023.8 |
| 20260902191722 | 17 | 5 | 0.0 | 0.0 | 0.00 | 0.00 | 0.00 | 64 | 1023.8 |
| 20260902191214 | 17 | 5 | 0.0 | 0.0 | 0.00 | 0.00 | 0.00 | 64 | 1023.7 |
| 20260902190214 | 17 | 339 | 0.0 | 0.0 | 0.00 | 0.00 | 0.00 | 64 | 1023.7 |
| 20260902185716 | 17 | 26 | 0.0 | 0.0 | 0.00 | 0.00 | 0.00 | 63 | 1023.6 |
| 20260902185225 | 18 | 0 | 0.0 | 0.0 | 0.00 | 0.00 | 0.00 | 62 | 1023.6 |
| 20260902184718 | 18 | 355 | 0.0 | 0.0 | 0.00 | 0.00 | 0.00 | 62 | 1023.5 |
| 20260902184221 | 18 | 74 | 0.0 | 0.0 | 0.00 | 0.00 | 0.00 | 61 | 1023.4 |
| 20260902183728 | 18 | 350 | 0.0 | 0.0 | 0.00 | 0.00 | 0.00 | 61 | 1023.4 |
| 20260902183231 | 19 | 344 | 0.0 | 1.6 | 0.00 | 0.00 | 0.00 | 61 | 1023.4 |
| 20260902182718 | 19 | 345 | 0.0 | 8.0 | 0.00 | 0.00 | 0.00 | 60 | 1023.4 |
| 20260902182223 | 19 | 345 | 0.0 | 8.0 | 0.00 | 0.00 | 0.00 | 60 | 1023.4 |
| 20260902181713 | 19 | 313 | 0.0 | 6.4 | 0.00 | 0.00 | 0.00 | 57 | 1023.2 |
| 20260902180707 | 20 | 71 | 0.0 | 4.8 | 0.00 | 0.00 | 0.00 | 57 | 1023.2 |
| 20260902180219 | 20 | 50 | 0.0 | 4.8 | 0.00 | 0.00 | 0.00 | 57 | 1023.2 |
| 20260902175723 | 20 | 83 | 0.0 | 4.8 | 0.00 | 0.00 | 0.00 | 58 | 1023.2 |
| 20260902175226 | 20 | 330 | 0.0 | 17.7 | 0.00 | 0.00 | 0.00 | 57 | 1023.1 |
| 20260902174227 | 20 | 328 | 3.2 | 17.7 | 0.00 | 0.00 | 0.00 | 56 | 1023.0 |
| 20260902173714 | 20 | 334 | 0.0 | 0.0 | 0.00 | 0.00 | 0.00 | 56 | 1023.0 |
| 20260902173220 | 20 | 333 | 0.0 | 0.0 | 0.00 | 0.00 | 0.00 | 58 | 1022.8 |
| 20260902172722 | 20 | 66 | 0.0 | 0.0 | 0.00 | 0.00 | 0.00 | 56 | 1022.8 |
| 20260902172214 | 20 | 317 | 0.0 | 0.0 | 0.00 | 0.00 | 0.00 | 57 | 1022.7 |
| 20260902171712 | 21 | 344 | 0.0 | 0.0 | 0.00 | 0.00 | 0.00 | 57 | 1022.8 |
| 20260902171220 | 21 | 342 | 0.0 | 0.0 | 0.00 | 0.00 | 0.00 | 56 | 1022.7 |
| 20260902170719 | 21 | 310 | 0.0 | 0.0 | 0.00 | 0.00 | 0.00 | 55 | 1022.7 |
| 20260902170247 | 21 | 310 | 0.0 | 0.0 | 0.00 | 0.00 | 0.00 | 53 | 1022.7 |
| 20260902165715 | 21 | 292 | 0.0 | 0.0 | 0.00 | 0.00 | 0.00 | 52 | 1022.7 |
| 20260902165228 | 22 | 63 | 0.0 | 0.0 | 0.00 | 0.00 | 0.00 | 49 | 1022.6 |
| 20260902164721 | 22 | 24 | 0.0 | 0.0 | 0.00 | 0.00 | 0.00 | 49 | 1022.6 |
| 20260902164211 | 22 | 16 | 0.0 | 0.0 | 0.00 | 0.00 | 0.00 | 49 | 1022.5 |
| 20260902163210 | 22 | 169 | 0.0 | 17.7 | 0.00 | 0.00 | 0.00 | 47 | 1022.6 |
| 20260902162723 | 22 | 90 | 3.2 | 17.7 | 0.00 | 0.00 | 0.00 | 46 | 1022.7 |
| 20260902161716 | 22 | 58 | 1.6 | 14.5 | 0.00 | 0.00 | 0.00 | 47 | 1022.7 |
| 20260902161212 | 23 | 113 | 1.6 | 14.5 | 0.00 | 0.00 | 0.00 | 45 | 1022.7 |
| 20260902160711 | 23 | 197 | 1.6 | 14.5 | 0.00 | 0.00 | 0.00 | 45 | 1022.7 |
| 20260902160245 | 23 | 156 | 1.6 | 19.3 | 0.00 | 0.00 | 0.00 | 44 | 1022.6 |
| 20260902155722 | 23 | 142 | 3.2 | 29.0 | 0.00 | 0.00 | 0.00 | 45 | 1022.7 |
| 20260902154724 | 22 | 196 | 9.7 | 24.1 | 0.00 | 0.00 | 0.00 | 45 | 1022.8 |
| 20260902154220 | 22 | 340 | 6.4 | 24.1 | 0.00 | 0.00 | 0.00 | 46 | 1022.6 |
| 20260902153211 | 22 | 0 | 4.8 | 20.9 | 0.00 | 0.00 | 0.00 | 44 | 1022.7 |
| 20260902151732 | 22 | 25 | 4.8 | 17.7 | 0.00 | 0.00 | 0.00 | 43 | 1022.8 |
| 20260902151218 | 22 | 79 | 6.4 | 17.7 | 0.00 | 0.00 | 0.00 | 42 | 1022.7 |
| 20260902150716 | 23 | 70 | 4.8 | 17.7 | 0.00 | 0.00 | 0.00 | 41 | 1022.7 |
| 20260902150223 | 23 | 19 | 3.2 | 17.7 | 0.00 | 0.00 | 0.00 | 42 | 1022.6 |
| 20260902145709 | 23 | 234 | 6.4 | 17.7 | 0.00 | 0.00 | 0.00 | 40 | 1022.6 |
| 20260902145228 | 23 | 297 | 6.4 | 17.7 | 0.00 | 0.00 | 0.00 | 40 | 1022.6 |
| 20260902144728 | 23 | 314 | 3.2 | 20.9 | 0.00 | 0.00 | 0.00 | 41 | 1022.7 |
| 20260902144221 | 23 | 334 | 6.4 | 20.9 | 0.00 | 0.00 | 0.00 | 40 | 1022.6 |
| 20260902143722 | 23 | 340 | 6.4 | 20.9 | 0.00 | 0.00 | 0.00 | 40 | 1022.8 |
| 20260902143229 | 23 | 295 | 4.8 | 12.9 | 0.00 | 0.00 | 0.00 | 39 | 1022.7 |
| 20260902142716 | 23 | 343 | 4.8 | 12.9 | 0.00 | 0.00 | 0.00 | 40 | 1022.7 |
| 20260902142229 | 23 | 302 | 4.8 | 17.7 | 0.00 | 0.00 | 0.00 | 36 | 1022.8 |
| 20260902141716 | 23 | 320 | 3.2 | 17.7 | 0.00 | 0.00 | 0.00 | 37 | 1022.8 |
| 20260902141217 | 23 | 333 | 6.4 | 22.5 | 0.00 | 0.00 | 0.00 | 36 | 1022.8 |
| 20260902140726 | 23 | 22 | 8.0 | 22.5 | 0.00 | 0.00 | 0.00 | 35 | 1022.7 |
| 20260902140224 | 23 | 124 | 9.7 | 25.7 | 0.00 | 0.00 | 0.00 | 36 | 1022.7 |
| 20260902135213 | 23 | 323 | 8.0 | 25.7 | 0.00 | 0.00 | 0.00 | 39 | 1022.7 |
| 20260902134712 | 23 | 5 | 6.4 | 19.3 | 0.00 | 0.00 | 0.00 | 38 | 1022.8 |
| 20260902134216 | 23 | 299 | 4.8 | 19.3 | 0.00 | 0.00 | 0.00 | 37 | 1022.7 |
| 20260902133706 | 24 | 342 | 4.8 | 19.3 | 0.00 | 0.00 | 0.00 | 35 | 1022.7 |
| 20260902133225 | 24 | 314 | 3.2 | 20.9 | 0.00 | 0.00 | 0.00 | 34 | 1022.7 |
| 20260902132712 | 24 | 79 | 3.2 | 20.9 | 0.00 | 0.00 | 0.00 | 35 | 1022.7 |
| 20260902131224 | 23 | 292 | 1.6 | 14.5 | 0.00 | 0.00 | 0.00 | 34 | 1023.0 |
| 20260902130719 | 23 | 254 | 3.2 | 16.1 | 0.00 | 0.00 | 0.00 | 33 | 1023.0 |
| 20260902125727 | 23 | 62 | 8.0 | 22.5 | 0.00 | 0.00 | 0.00 | 36 | 1023.0 |
| 20260902125235 | 23 | 344 | 11.3 | 22.5 | 0.00 | 0.00 | 0.00 | 35 | 1023.0 |
| 20260902124711 | 23 | 278 | 8.0 | 17.7 | 0.00 | 0.00 | 0.00 | 37 | 1023.1 |
| 20260902124210 | 23 | 328 | 6.4 | 22.5 | 0.00 | 0.00 | 0.00 | 42 | 1023.2 |
| 20260902123718 | 23 | 326 | 6.4 | 22.5 | 0.00 | 0.00 | 0.00 | 41 | 1023.1 |
| 20260902123218 | 23 | 102 | 8.0 | 22.5 | 0.00 | 0.00 | 0.00 | 41 | 1023.1 |
| 20260902122720 | 23 | 348 | 8.0 | 19.3 | 0.00 | 0.00 | 0.00 | 42 | 1023.0 |
| 20260902122224 | 23 | 298 | 8.0 | 19.3 | 0.00 | 0.00 | 0.00 | 44 | 1023.0 |
| 20260902121718 | 23 | 333 | 3.2 | 14.5 | 0.00 | 0.00 | 0.00 | 44 | 1023.0 |
| 20260902121208 | 24 | 248 | 1.6 | 16.1 | 0.00 | 0.00 | 0.00 | 41 | 1023.0 |
| 20260902120723 | 24 | 334 | 4.8 | 16.1 | 0.00 | 0.00 | 0.00 | 45 | 1023.1 |
| 20260902120222 | 23 | 340 | 3.2 | 12.9 | 0.00 | 0.00 | 0.00 | 45 | 1023.1 |
| 20260902115726 | 23 | 151 | 1.6 | 12.9 | 0.00 | 0.00 | 0.00 | 45 | 1023.0 |
| 20260902115220 | 23 | 344 | 1.6 | 17.7 | 0.00 | 0.00 | 0.00 | 47 | 1023.0 |
| 20260902114722 | 22 | 339 | 3.2 | 17.7 | 0.00 | 0.00 | 0.00 | 47 | 1023.1 |
| 20260902114227 | 22 | 109 | 6.4 | 17.7 | 0.00 | 0.00 | 0.00 | 49 | 1023.1 |
| 20260902113721 | 22 | 329 | 6.4 | 17.7 | 0.00 | 0.00 | 0.00 | 49 | 1023.1 |
| 20260902113209 | 22 | 333 | 4.8 | 17.7 | 0.00 | 0.00 | 0.00 | 49 | 1023.2 |
| 20260902111728 | 22 | 322 | 4.8 | 14.5 | 0.00 | 0.00 | 0.00 | 51 | 1023.2 |
| 20260902111217 | 22 | 284 | 4.8 | 14.5 | 0.00 | 0.00 | 0.00 | 51 | 1023.3 |
| 20260902110714 | 22 | 333 | 6.4 | 16.1 | 0.00 | 0.00 | 0.00 | 51 | 1023.3 |
| 20260902104718 | 22 | 275 | 1.6 | 9.7 | 0.00 | 0.00 | 0.00 | 48 | 1023.3 |
| 20260902103722 | 22 | 337 | 1.6 | 9.7 | 0.00 | 0.00 | 0.00 | 48 | 1023.4 |
| 20260902102719 | 22 | 183 | 1.6 | 8.0 | 0.00 | 0.00 | 0.00 | 50 | 1023.4 |
| 20260902102211 | 21 | 175 | 0.0 | 0.0 | 0.00 | 0.00 | 0.00 | 53 | 1023.4 |
| 20260902101213 | 21 | 5 | 1.6 | 9.7 | 0.00 | 0.00 | 0.00 | 52 | 1023.5 |
| 20260902100736 | 21 | 249 | 4.8 | 9.7 | 0.00 | 0.00 | 0.00 | 52 | 1023.4 |
| 20260902100215 | 21 | 121 | 3.2 | 9.7 | 0.00 | 0.00 | 0.00 | 52 | 1023.5 |
| 20260902095720 | 21 | 169 | 1.6 | 9.7 | 0.00 | 0.00 | 0.00 | 51 | 1023.4 |
| 20260902095226 | 21 | 142 | 3.2 | 11.3 | 0.00 | 0.00 | 0.00 | 53 | 1023.5 |
| 20260902094731 | 21 | 160 | 3.2 | 11.3 | 0.00 | 0.00 | 0.00 | 54 | 1023.5 |
| 20260902094221 | 21 | 230 | 3.2 | 11.3 | 0.00 | 0.00 | 0.00 | 53 | 1023.5 |
| 20260902093720 | 21 | 169 | 1.6 | 11.3 | 0.00 | 0.00 | 0.00 | 55 | 1023.6 |
| 20260902093209 | 21 | 180 | 1.6 | 12.9 | 0.00 | 0.00 | 0.00 | 54 | 1023.5 |
| 20260902092709 | 20 | 187 | 4.8 | 12.9 | 0.00 | 0.00 | 0.00 | 54 | 1023.5 |
| 20260902092235 | 20 | 163 | 4.8 | 11.3 | 0.00 | 0.00 | 0.00 | 55 | 1023.5 |
| 20260902091717 | 20 | 173 | 3.2 | 9.7 | 0.00 | 0.00 | 0.00 | 56 | 1023.5 |
| 20260902091215 | 20 | 131 | 3.2 | 9.7 | 0.00 | 0.00 | 0.00 | 57 | 1023.5 |
| 20260902090722 | 20 | 172 | 3.2 | 9.7 | 0.00 | 0.00 | 0.00 | 57 | 1023.6 |
| 20260902090227 | 19 | 113 | 1.6 | 6.4 | 0.00 | 0.00 | 0.00 | 57 | 1023.5 |
| 20260902085720 | 20 | 175 | 0.0 | 0.0 | 0.00 | 0.00 | 0.00 | 58 | 1023.6 |
| 20260902084212 | 19 | 163 | 0.0 | 0.0 | 0.00 | 0.00 | 0.00 | 61 | 1023.4 |
| 20260902083716 | 19 | 173 | 0.0 | 0.0 | 0.00 | 0.00 | 0.00 | 65 | 1023.5 |
| 20260902083227 | 18 | 151 | 0.0 | 0.0 | 0.00 | 0.00 | 0.00 | 69 | 1023.5 |
| 20260902082733 | 18 | 205 | 0.0 | 0.0 | 0.00 | 0.00 | 0.00 | 70 | 1023.5 |
| 20260902082220 | 17 | 153 | 0.0 | 0.0 | 0.00 | 0.00 | 0.00 | 72 | 1023.4 |
| 20260902081723 | 17 | 164 | 0.0 | 0.0 | 0.00 | 0.00 | 0.00 | 72 | 1023.3 |
| 20260902081224 | 17 | 178 | 0.0 | 0.0 | 0.00 | 0.00 | 0.00 | 72 | 1023.1 |
| 20260902080719 | 17 | 240 | 0.0 | 0.0 | 0.00 | 0.00 | 0.00 | 72 | 1023.2 |
| 20260902080227 | 17 | 240 | 0.0 | 0.0 | 0.00 | 0.00 | 0.00 | 69 | 1023.3 |
| 20260902075226 | 17 | 223 | 0.0 | 0.0 | 0.00 | 0.00 | 0.00 | 70 | 1023.1 |
| 20260902074725 | 17 | 223 | 0.0 | 0.0 | 0.00 | 0.00 | 0.00 | 69 | 1023.0 |
| 20260902073728 | 17 | 248 | 0.0 | 0.0 | 0.00 | 0.00 | 0.00 | 72 | 1023.1 |
| 20260902073216 | 16 | 176 | 0.0 | 0.0 | 0.00 | 0.00 | 0.00 | 71 | 1023.1 |
| 20260902072223 | 16 | 176 | 0.0 | 0.0 | 0.00 | 0.00 | 0.00 | 77 | 1022.8 |
| 20260902071718 | 15 | 124 | 0.0 | 0.0 | 0.00 | 0.00 | 0.00 | 77 | 1022.8 |
| 20260902071219 | 15 | 124 | 0.0 | 0.0 | 0.00 | 0.00 | 0.00 | 78 | 1023.0 |
| 20260902070721 | 14 | 124 | 0.0 | 0.0 | 0.00 | 0.00 | 0.00 | 79 | 1023.1 |
| 20260902070213 | 14 | 124 | 0.0 | 0.0 | 0.00 | 0.00 | 0.00 | 79 | 1023.1 |
| 20260902065717 | 13 | 124 | 0.0 | 0.0 | 0.00 | 0.00 | 0.00 | 81 | 1023.1 |
| 20260902065218 | 13 | 115 | 0.0 | 0.0 | 0.00 | 0.00 | 0.00 | 84 | 1023.2 |
| 20260902064717 | 12 | 115 | 0.0 | 0.0 | 0.00 | 0.00 | 0.00 | 84 | 1023.2 |
| 20260902064215 | 12 | 134 | 0.0 | 0.0 | 0.00 | 0.00 | 0.00 | 84 | 1023.1 |
| 20260902063720 | 12 | 130 | 0.0 | 0.0 | 0.00 | 0.00 | 0.00 | 84 | 1023.1 |
| 20260902063224 | 12 | 84 | 0.0 | 0.0 | 0.00 | 0.00 | 0.00 | 84 | 1023.1 |
| 20260902062210 | 12 | 144 | 0.0 | 0.0 | 0.00 | 0.00 | 0.00 | 85 | 1023.0 |
| 20260902061225 | 12 | 144 | 0.0 | 0.0 | 0.00 | 0.00 | 0.00 | 84 | 1023.1 |
| 20260902060723 | 11 | 144 | 0.0 | 0.0 | 0.00 | 0.00 | 0.00 | 85 | 1023.1 |
| 20260902060223 | 11 | 144 | 0.0 | 0.0 | 0.00 | 0.00 | 0.00 | 84 | 1023.2 |
| 20260902055723 | 11 | 329 | 0.0 | 0.0 | 0.00 | 0.00 | 0.00 | 85 | 1023.2 |
| 20260902055219 | 11 | 327 | 0.0 | 0.0 | 0.00 | 0.00 | 0.00 | 85 | 1023.2 |
| 20260902054207 | 11 | 118 | 0.0 | 0.0 | 0.00 | 0.00 | 0.00 | 84 | 1023.1 |
| 20260902053709 | 11 | 118 | 0.0 | 0.0 | 0.00 | 0.00 | 0.00 | 84 | 1023.1 |
| 20260902053215 | 11 | 118 | 0.0 | 0.0 | 0.00 | 0.00 | 0.00 | 84 | 1023.1 |
| 20260902052726 | 11 | 118 | 0.0 | 0.0 | 0.00 | 0.00 | 0.00 | 84 | 1023.1 |
| 20260902051730 | 11 | 118 | 0.0 | 0.0 | 0.00 | 0.00 | 0.00 | 84 | 1023.1 |
| 20260902051220 | 11 | 118 | 0.0 | 0.0 | 0.00 | 0.00 | 0.00 | 84 | 1023.0 |
| 20260902050721 | 11 | 118 | 0.0 | 0.0 | 0.00 | 0.00 | 0.00 | 84 | 1023.0 |
| 20260902050223 | 11 | 118 | 0.0 | 0.0 | 0.00 | 0.00 | 0.00 | 84 | 1023.0 |
| 20260902045720 | 11 | 118 | 0.0 | 0.0 | 0.00 | 0.00 | 0.00 | 84 | 1023.0 |
| 20260902045219 | 11 | 118 | 0.0 | 0.0 | 0.00 | 0.00 | 0.00 | 84 | 1022.8 |
| 20260902044719 | 11 | 118 | 0.0 | 0.0 | 0.00 | 0.00 | 0.00 | 84 | 1022.7 |
| 20260902043717 | 11 | 118 | 0.0 | 0.0 | 0.00 | 0.00 | 0.00 | 84 | 1022.8 |
| 20260902043216 | 11 | 118 | 0.0 | 0.0 | 0.00 | 0.00 | 0.00 | 84 | 1022.8 |
| 20260902042731 | 11 | 118 | 0.0 | 0.0 | 0.00 | 0.00 | 0.00 | 85 | 1022.8 |
| 20260902042226 | 11 | 118 | 0.0 | 0.0 | 0.00 | 0.00 | 0.00 | 85 | 1022.7 |
| 20260902041712 | 11 | 118 | 0.0 | 0.0 | 0.00 | 0.00 | 0.00 | 85 | 1022.8 |
| 20260902041211 | 11 | 118 | 0.0 | 0.0 | 0.00 | 0.00 | 0.00 | 85 | 1022.8 |
| 20260902040723 | 11 | 118 | 0.0 | 0.0 | 0.00 | 0.00 | 0.00 | 85 | 1022.8 |
| 20260902040238 | 11 | 118 | 0.0 | 0.0 | 0.00 | 0.00 | 0.00 | 85 | 1022.8 |
| 20260902035717 | 11 | 118 | 0.0 | 0.0 | 0.00 | 0.00 | 0.00 | 84 | 1022.7 |
| 20260902035211 | 11 | 118 | 0.0 | 0.0 | 0.00 | 0.00 | 0.00 | 85 | 1022.7 |
| 20260902034720 | 11 | 118 | 0.0 | 0.0 | 0.00 | 0.00 | 0.00 | 85 | 1022.7 |
| 20260902034213 | 11 | 118 | 0.0 | 0.0 | 0.00 | 0.00 | 0.00 | 84 | 1022.8 |
| 20260902033715 | 11 | 117 | 0.0 | 0.0 | 0.00 | 0.00 | 0.00 | 84 | 1022.7 |
| 20260902033215 | 11 | 89 | 0.0 | 0.0 | 0.00 | 0.00 | 0.00 | 84 | 1023.0 |
| 20260902032728 | 11 | 89 | 0.0 | 0.0 | 0.00 | 0.00 | 0.00 | 84 | 1023.0 |
| 20260902032225 | 11 | 89 | 0.0 | 0.0 | 0.00 | 0.00 | 0.00 | 84 | 1023.0 |
| 20260902031723 | 11 | 88 | 0.0 | 0.0 | 0.00 | 0.00 | 0.00 | 84 | 1023.0 |
| 20260902031238 | 11 | 88 | 0.0 | 0.0 | 0.00 | 0.00 | 0.00 | 84 | 1023.0 |
| 20260902030717 | 11 | 88 | 0.0 | 0.0 | 0.00 | 0.00 | 0.00 | 84 | 1023.0 |
| 20260902025720 | 11 | 88 | 0.0 | 0.0 | 0.00 | 0.00 | 0.00 | 83 | 1023.1 |
| 20260902025221 | 11 | 88 | 0.0 | 0.0 | 0.00 | 0.00 | 0.00 | 83 | 1023.0 |
| 20260902024729 | 11 | 88 | 0.0 | 0.0 | 0.00 | 0.00 | 0.00 | 83 | 1023.1 |
| 20260902024231 | 11 | 88 | 0.0 | 0.0 | 0.00 | 0.00 | 0.00 | 83 | 1023.1 |
| 20260902023724 | 11 | 88 | 0.0 | 0.0 | 0.00 | 0.00 | 0.00 | 83 | 1023.2 |
| 20260902023225 | 11 | 88 | 0.0 | 0.0 | 0.00 | 0.00 | 0.00 | 83 | 1023.0 |
| 20260902022718 | 11 | 88 | 0.0 | 0.0 | 0.00 | 0.00 | 0.00 | 83 | 1023.0 |
| 20260902022218 | 11 | 84 | 0.0 | 0.0 | 0.00 | 0.00 | 0.00 | 83 | 1023.1 |
| 20260902021722 | 11 | 84 | 0.0 | 0.0 | 0.00 | 0.00 | 0.00 | 83 | 1023.0 |
| 20260902021215 | 11 | 84 | 0.0 | 0.0 | 0.00 | 0.00 | 0.00 | 83 | 1023.0 |
| 20260902020729 | 11 | 84 | 0.0 | 0.0 | 0.00 | 0.00 | 0.00 | 83 | 1023.0 |
| 20260902020211 | 11 | 84 | 0.0 | 0.0 | 0.00 | 0.00 | 0.00 | 82 | 1022.8 |
| 20260902015719 | 11 | 84 | 0.0 | 0.0 | 0.00 | 0.00 | 0.00 | 82 | 1023.0 |
| 20260902014722 | 11 | 84 | 0.0 | 0.0 | 0.00 | 0.00 | 0.00 | 82 | 1023.0 |
| 20260902014225 | 11 | 84 | 0.0 | 0.0 | 0.00 | 0.00 | 0.00 | 82 | 1023.0 |
| 20260902013706 | 11 | 84 | 0.0 | 0.0 | 0.00 | 0.00 | 0.00 | 81 | 1023.0 |
| 20260902013214 | 11 | 84 | 0.0 | 0.0 | 0.00 | 0.00 | 0.00 | 81 | 1022.8 |
| 20260902012710 | 11 | 84 | 0.0 | 0.0 | 0.00 | 0.00 | 0.00 | 81 | 1023.0 |
| 20260902012218 | 11 | 84 | 0.0 | 0.0 | 0.00 | 0.00 | 0.00 | 81 | 1023.0 |
| 20260902011715 | 11 | 84 | 0.0 | 0.0 | 0.00 | 0.00 | 0.00 | 81 | 1023.1 |
| 20260902011217 | 11 | 84 | 0.0 | 0.0 | 0.00 | 0.00 | 0.00 | 81 | 1023.1 |
| 20260902010726 | 12 | 61 | 0.0 | 0.0 | 0.00 | 0.00 | 0.00 | 81 | 1023.2 |
| 20260902010217 | 12 | 61 | 0.0 | 0.0 | 0.00 | 0.00 | 0.00 | 81 | 1023.1 |
| 20260902005712 | 12 | 61 | 0.0 | 0.0 | 0.00 | 0.00 | 0.00 | 81 | 1023.2 |
| 20260902005230 | 12 | 20 | 0.0 | 0.0 | 0.00 | 0.00 | 0.00 | 81 | 1023.3 |
| 20260902004714 | 12 | 58 | 0.0 | 0.0 | 0.00 | 0.00 | 0.00 | 80 | 1023.3 |
| 20260902004216 | 12 | 58 | 0.0 | 0.0 | 0.00 | 0.00 | 0.00 | 80 | 1023.3 |
| 20260902003721 | 12 | 22 | 0.0 | 0.0 | 0.00 | 0.00 | 0.00 | 80 | 1023.3 |
| 20260902003225 | 12 | 11 | 0.0 | 0.0 | 0.00 | 0.00 | 0.00 | 80 | 1023.3 |
| 20260902002719 | 12 | 11 | 0.0 | 0.0 | 0.00 | 0.00 | 0.00 | 80 | 1023.3 |
| 20260902002212 | 12 | 11 | 0.0 | 0.0 | 0.00 | 0.00 | 0.00 | 80 | 1023.3 |
| 20260902001732 | 12 | 11 | 0.0 | 0.0 | 0.00 | 0.00 | 0.00 | 80 | 1023.3 |
| 20260902001216 | 12 | 11 | 0.0 | 0.0 | 0.00 | 0.00 | 0.00 | 80 | 1023.4 |
| 20260902000711 | 12 | 12 | 0.0 | 0.0 | 0.00 | 0.00 | 0.00 | 80 | 1023.5 |
| 20260902000215 | 12 | 12 | 0.0 | 0.0 | 0.00 | 0.00 | 0.00 | 81 | 1023.5 |
| 20260901235223 | 12 | 88 | 0.0 | 0.0 | 0.00 | 0.00 | 0.00 | 81 | 1023.5 |
| 20260901234731 | 12 | 88 | 0.0 | 0.0 | 0.00 | 0.00 | 0.00 | 80 | 1023.5 |
| 20260901234225 | 12 | 88 | 0.0 | 0.0 | 0.00 | 0.00 | 0.00 | 80 | 1023.6 |
| 20260901233707 | 12 | 88 | 0.0 | 0.0 | 0.00 | 0.00 | 0.00 | 79 | 1023.6 |
| 20260901233214 | 12 | 48 | 0.0 | 0.0 | 0.00 | 0.00 | 0.00 | 79 | 1023.5 |
| 20260901232220 | 12 | 52 | 0.0 | 0.0 | 0.00 | 0.00 | 0.00 | 79 | 1023.5 |
| 20260901231709 | 12 | 52 | 0.0 | 0.0 | 0.00 | 0.00 | 0.00 | 79 | 1023.5 |
| 20260901231219 | 12 | 50 | 0.0 | 0.0 | 0.00 | 0.00 | 0.00 | 79 | 1023.5 |